Regional Weather Roundup
Issued by NWS

Home | Current Version | Previous Version | Graphics & Text | Print | Product List | Glossary On
Versions: 1 2 3 4 5 6 7 8 9 10 11 12 13 14 15 16 17 18 19 20 21 22 23 24 25 26 27 28 29 30 31 32 33 34 35 36 37 38 39 40 41 42 43 44 45 46 47 48 49 50
000
ASUS43 KDMX 080506
RWRIA

WEATHER ROUNDUP FOR IOWA
NATIONAL WEATHER SERVICE DES MOINES IA
1100 PM CST WED DEC 07 2016

NOTE: "FAIR" INDICATES FEW OR NO CLOUDS BELOW 12,000 FEET WITH NO
SIGNIFICANT WEATHER AND/OR OBSTRUCTIONS TO VISIBILITY.

* - THESE STATIONS ARE NOT NWS STATIONS...THUS NOT UNDER NWS
QUALITY CONTROL.  THEY ALSO DO NOT REPORT WEATHER SUCH
AS PRECIPITATION OR FOG.

IAZ001>003-012>014-020>022-031>034-043>046-080600-
   NORTHWEST IOWA

CITY           SKY/WX    TMP DP  RH WIND       PRES   REMARKS
CARROLL *      MOCLDY    16   9  73 NW17G30   30.35R WCI   0
CHEROKEE *     CLOUDY    13   5  68 NW20G30   30.36R WCI  -4
DENISON *      CLOUDY    14   7  73 W14G24    30.36S WCI  -1
LE MARS *      MOCLDY    12   3  67 NW23G35   30.41R WCI  -7
ORANGE CITY *  PTCLDY    10   3  72 NW29G35   30.35R WCI -11
SHELDON *      PTCLDY     9   3  78 NW22G32   30.32R WCI -11
SIOUX CITY     CLOUDY    16   6  65 NW23G30   30.40R WCI  -2
SPENCER        CLEAR     11   4  73 W35G43    30.31R WCI -12
STORM LAKE *   FLURRIES  12   5  73 W30G37    30.31R WCI  -9
$$

IAZ055>058-069>071-079>083-090>094-080600-
   SOUTHWEST IOWA

CITY           SKY/WX    TMP DP  RH WIND       PRES   REMARKS
ATLANTIC *     PTCLDY    16   7  67 NW16G22   30.40S WCI   0
CLARINDA *     CLEAR     19   7  58 NW15G23   30.46R WCI   5
COUNCIL BLFS * PTCLDY    16   7  67 NW13G21   30.43R WCI   2
CRESTON *      CLEAR     16   7  67 NW16G26   30.38R WCI   0
HARLAN  *      CLEAR     14   7  73 W18       30.43R WCI  -3
LAMONI         CLEAR     18   8  65 NW18      30.38R WCI   2
RED OAK *      CLEAR     18   7  62 NW10G23   30.45R WCI   6
SHENANDOAH *   CLEAR     19   7  58 NW14G21   30.47R WCI   6
$$

IAZ047>049-059>061-072>074-084-080600-
   CENTRAL IOWA

CITY           SKY/WX    TMP DP  RH WIND       PRES   REMARKS
AMES           MOCLDY    16   9  74 W23G29    30.33R WCI  -2
ANKENY *       MOCLDY    18   9  68 W17G29    30.36R WCI   2
BOONE *        CLOUDY    16   7  67 W18G31    30.31R WCI  -1
CHARITON *     CLEAR     18   9  68 NW20      30.35R WCI   1
DES MOINES     PTCLDY    18   7  62 NW21G30   30.35R WCI   1
GRINNELL*      CLEAR     17  10  74 W15G26    30.30R WCI   3
KNOXVILLE *    CLEAR     18   7  62 W18       30.33R WCI   2
MARSHALLTOWN   CLOUDY    17  10  74 NW21      30.29R WCI   0
NEWTON *       CLOUDY    18   9  68 W22G29    30.32R WCI   0
PELLA *        CLEAR     19   9  66 NW15      30.35R WCI   5
PERRY *          N/A     17  11  79 W16G28    30.36R WCI   1
$$

IAZ004>006-015-016-023>025-035-036-080600-
   NORTH CENTRAL IOWA

CITY           SKY/WX    TMP DP  RH WIND       PRES   REMARKS
ALGONA *       CLEAR     12   5  73 NW17G26   30.27R WCI  -5
CLARION *      MOCLDY    14   5  67 NW23G29   30.29R WCI  -5
ESTHERVILLE    CLEAR     10   4  76 W23       30.27R WCI -10
FORT DODGE *   CLOUDY    16   5  62 W13G21    30.31R WCI   2
MASON CITY     MOCLDY    12   4  70 W18G31    30.25R WCI  -6
FOREST CITY *    N/A     12   5  73 NW18G25   30.24R WCI  -5
WEBSTER CITY * FLURRIES  16  10  79 NW20      30.28R WCI  -1
IOWA FALLS *   CLOUDY    18  10  73 W23G31    30.28R WCI   0
$$

IAZ007>011-017>019-026>030-037>042-050>054-066-080600-
   NORTHEAST IOWA

CITY           SKY/WX    TMP DP  RH WIND       PRES   REMARKS
CEDAR RAPIDS   PTCLDY    17  12  80 W18       30.25R WCI   1
CHARLES CITY * CLOUDY    14   7  73 W22       30.22R WCI  -4
CLINTON *      MOCLDY    20  14  77 W24       30.22R WCI   3
DECORAH *      CLOUDY    14   7  73 W12G29    30.16R WCI   0
DUBUQUE        CLOUDY    20  11  68 W24       30.17R WCI   3
MONTICELLO *   CLOUDY    21  12  68 W16G23    30.21R WCI   7
OELWEIN *      CLOUDY    18  12  79 W22G30    30.21R WCI   0
WATERLOO       CLOUDY    17   7  64 NW14G29   30.25R WCI   3
$$

IAZ064-065-067-068-078-080600-
   EAST CENTRAL IOWA

CITY           SKY/WX    TMP DP  RH WIND       PRES   REMARKS
DAVENPORT      CLEAR     20  13  74 W16       30.25R WCI   6
IOWA CITY      CLEAR     20  11  68 W15       30.30R WCI   6
MUSCATINE *    CLEAR     21  12  68 W17G23    30.30R WCI   7
QUAD CITIES    CLEAR     22  12  65 W21G29    30.26R WCI   6
$$

IAZ062-063-075>077-085>089-095>099-080600-
   SOUTHEAST IOWA

CITY           SKY/WX    TMP DP  RH WIND       PRES   REMARKS
BURLINGTON     CLEAR     21  12  68 W9        30.31R WCI  11
FAIRFIELD *    CLEAR     19   9  63 W13G21    30.32R WCI   7
FORT MADISON * CLEAR     21  10  63 W13       30.33R WCI   9
KEOKUK *       CLEAR     21  12  68 W12       30.33S WCI   9
OSKALOOSA *      N/A     18  11  74 W14G21    30.33R WCI   4
CENTERVILLE *    N/A     18  10  73 W14G20    30.36R WCI   4
OTTUMWA        CLEAR     19   8  62 W15G22    30.33R WCI   5
WASHINGTON *   CLEAR     19  12  73 W15       30.32R WCI   5
$$

ABBREVIATIONS USED IN REMARKS
   TC - TEMPERATURES IN CELSIUS
  WCI - WIND CHILL INDEX
   HX - HEAT INDEX
  VSB - VISIBILITY
$$




USA.gov is the U.S. government's official web portal to all federal, state and local government web resources and services.